,,,PA_Meas_PMT16A,,PR_Meas_QMR101_102,,RH_Meas_QMH101,,SR_Meas_QMS101,,TA_Meas_QMH101,,GenWind,,GenWind,
date,time,status,PA,status,PR,status,RH,status,SR,status,TA,status,DirAvg,status,SpdAvg,
2012-05-10, 00:00:04,VALID,1002.05,VALID,0,VALID,95.4694,VALID,0,VALID,23.3872,VALID,127,VALID,2.18008,
2012-05-10, 00:01:04,VALID,1002.02,VALID,0,VALID,95.4618,VALID,0,VALID,23.428,VALID,122,VALID,1.71523,
2012-05-10, 00:02:04,VALID,1002.02,VALID,0,VALID,95.4618,VALID,0,VALID,23.4475,VALID,123,VALID,1.29609,
2012-05-10, 00:03:04,VALID,1001.99,VALID,0,VALID,95.4542,VALID,0,VALID,23.4475,VALID,125,VALID,1.40234,
2012-05-10, 00:04:04,VALID,1002.01,VALID,0,VALID,95.4465,VALID,0,VALID,23.4671,VALID,122,VALID,1.27578,
2012-05-10, 00:05:04,VALID,1001.97,VALID,0,VALID,95.4618,VALID,0,VALID,23.4458,VALID,117,VALID,1.5582,
2012-05-10, 00:06:04,VALID,1001.97,VALID,0,VALID,95.4542,VALID,0,VALID,23.4848,VALID,114,VALID,1.41328,
2012-05-10, 00:07:04,VALID,1001.92,VALID,0,VALID,95.4389,VALID,0,VALID,23.4866,VALID,110,VALID,1.73086,
2012-05-10, 00:08:04,VALID,1001.91,VALID,0,VALID,95.4237,VALID,0,VALID,23.5061,VALID,114,VALID,1.79453,
2012-05-10, 00:09:04,VALID,1001.87,VALID,0,VALID,95.4008,VALID,0,VALID,23.5256,VALID,107,VALID,1.55,
2012-05-10, 00:10:04,VALID,1001.85,VALID,0,VALID,95.3931,VALID,0,VALID,23.5061,VALID,99,VALID,1.4457,
2012-05-10, 00:11:04,VALID,1001.84,VALID,0,VALID,95.3931,VALID,0,VALID,23.5256,VALID,99,VALID,1.30195,
2012-05-10, 00:12:04,VALID,1001.85,VALID,0,VALID,95.4084,VALID,0,VALID,23.5043,VALID,104,VALID,1.90508,
2012-05-10, 00:13:04,VALID,1001.83,VALID,0,VALID,95.3779,VALID,0,VALID,23.5451,VALID,102,VALID,2.20352,
2012-05-10, 00:14:04,VALID,1001.8,VALID,0,VALID,95.3855,VALID,0,VALID,23.5646,VALID,114,VALID,1.65469,
2012-05-10, 00:15:04,VALID,1001.78,VALID,0,VALID,95.3703,VALID,0,VALID,23.5451,VALID,110,VALID,1.96875,
2012-05-10, 00:16:04,VALID,1001.73,VALID,0,VALID,95.3626,VALID,0,VALID,23.5646,VALID,119,VALID,1.82109,
2012-05-10, 00:17:04,VALID,1001.72,VALID,0,VALID,95.3703,VALID,0,VALID,23.5646,VALID,111,VALID,1.53008,
2012-05-10, 00:18:04,VALID,1001.67,VALID,0,VALID,95.3397,VALID,0,VALID,23.5646,VALID,122,VALID,1.84414,
2012-05-10, 00:19:04,VALID,1001.67,VALID,0,VALID,95.3321,VALID,0,VALID,23.5646,VALID,128,VALID,2.14492,
2012-05-10, 00:20:04,VALID,1001.64,VALID,0,VALID,95.3092,VALID,0,VALID,23.5646,VALID,129,VALID,1.87344,
2012-05-10, 00:21:04,VALID,1001.61,VALID,0,VALID,95.3092,VALID,0,VALID,23.5451,VALID,121,VALID,2.19375,
2012-05-10, 00:22:04,VALID,1001.59,VALID,0,VALID,95.294,VALID,0,VALID,23.5451,VALID,132,VALID,1.83984,
2012-05-10, 00:23:04,VALID,1001.6,VALID,0,VALID,95.2558,VALID,0,VALID,23.5646,VALID,128,VALID,1.7543,
2012-05-10, 00:24:04,VALID,1001.6,VALID,0,VALID,95.2634,VALID,0,VALID,23.5646,VALID,117,VALID,1.67148,
2012-05-10, 00:25:04,VALID,1001.62,VALID,0,VALID,95.2634,VALID,0,VALID,23.5841,VALID,112,VALID,1.28867,
2012-05-10, 00:26:04,VALID,1001.64,VALID,0,VALID,95.2558,VALID,0,VALID,23.5646,VALID,111,VALID,1.57266,
2012-05-10, 00:27:04,VALID,1001.68,VALID,0,VALID,95.2405,VALID,0,VALID,23.5841,VALID,111,VALID,1.66523,
2012-05-10, 00:28:04,VALID,1001.66,VALID,0,VALID,95.2558,VALID,0,VALID,23.5646,VALID,106,VALID,1.69258,
2012-05-10, 00:29:04,VALID,1001.67,VALID,0,VALID,95.2405,VALID,0,VALID,23.5841,VALID,94,VALID,1.55117,
2012-05-10, 00:30:04,VALID,1001.71,VALID,0,VALID,95.2405,VALID,0,VALID,23.5841,VALID,77,VALID,1.30742,
2012-05-10, 00:31:04,VALID,1001.69,VALID,0,VALID,95.2329,VALID,0,VALID,23.5646,VALID,72,VALID,0.844141,
2012-05-10, 00:32:04,VALID,1001.73,VALID,0,VALID,95.2253,VALID,0,VALID,23.5841,VALID,52,VALID,0.675391,
2012-05-10, 00:33:04,VALID,1001.72,VALID,0,VALID,95.2177,VALID,0,VALID,23.5646,VALID,21,VALID,1.19141,
2012-05-10, 00:34:04,VALID,1001.72,VALID,0,VALID,95.21,VALID,0,VALID,23.5646,VALID,24,VALID,1.40391,
2012-05-10, 00:35:04,VALID,1001.72,VALID,0,VALID,95.1719,VALID,0,VALID,23.5646,VALID,34,VALID,1.79141,
2012-05-10, 00:36:04,VALID,1001.7,VALID,0,VALID,95.1719,VALID,0,VALID,23.5646,VALID,14,VALID,1.50898,
2012-05-10, 00:37:04,VALID,1001.71,VALID,0,VALID,95.1566,VALID,0,VALID,23.5433,VALID,18,VALID,1.61172,
2012-05-10, 00:38:04,VALID,1001.71,VALID,0,VALID,95.1643,VALID,0,VALID,23.5646,VALID,19,VALID,1.58945,
2012-05-10, 00:39:04,VALID,1001.7,VALID,0,VALID,95.1795,VALID,0,VALID,23.5433,VALID,20,VALID,1.33633,
2012-05-10, 00:40:04,VALID,1001.71,VALID,0,VALID,95.1948,VALID,0,VALID,23.5646,VALID,9,VALID,1.10469,
2012-05-10, 00:41:04,VALID,1001.76,VALID,0,VALID,95.21,VALID,0,VALID,23.5646,VALID,1,VALID,1.18828,
2012-05-10, 00:42:04,VALID,1001.77,VALID,0,VALID,95.21,VALID,0,VALID,23.5451,VALID,9,VALID,1.39375,
2012-05-10, 00:43:04,VALID,1001.78,VALID,0,VALID,95.21,VALID,0,VALID,23.5646,VALID,14,VALID,1.23711,
2012-05-10, 00:44:04,VALID,1001.79,VALID,0,VALID,95.1795,VALID,0,VALID,23.5451,VALID,10,VALID,1.03672,
2012-05-10, 00:45:04,VALID,1001.78,VALID,0,VALID,95.1871,VALID,0,VALID,23.5646,VALID,7,VALID,0.690625,
2012-05-10, 00:46:04,VALID,1001.77,VALID,0,VALID,95.1948,VALID,0,VALID,23.5238,VALID,3,VALID,0.993359,
2012-05-10, 00:47:04,VALID,1001.76,VALID,0,VALID,95.2024,VALID,0,VALID,23.5451,VALID,4,VALID,0.583594,
2012-05-10, 00:48:04,VALID,1001.72,VALID,0,VALID,95.21,VALID,0,VALID,23.5451,VALID,4,VALID,0.583203,
2012-05-10, 00:49:04,VALID,1001.7,VALID,0,VALID,95.2024,VALID,0,VALID,23.5451,VALID,4,VALID,0.44375,
2012-05-10, 00:50:04,VALID,1001.66,VALID,0,VALID,95.2024,VALID,0,VALID,23.5451,VALID,4,VALID,0.404687,
2012-05-10, 00:51:04,VALID,1001.7,VALID,0,VALID,95.1948,VALID,0,VALID,23.5451,VALID,4,VALID,0,
2012-05-10, 00:52:04,VALID,1001.71,VALID,0,VALID,95.2253,VALID,0,VALID,23.5451,VALID,4,VALID,0,
2012-05-10, 00:53:04,VALID,1001.67,VALID,0,VALID,95.2177,VALID,0,VALID,23.5238,VALID,5,VALID,0,
2012-05-10, 00:54:04,VALID,1001.65,VALID,0,VALID,95.21,VALID,0,VALID,23.5451,VALID,5,VALID,0,
2012-05-10, 00:55:04,VALID,1001.64,VALID,0,VALID,95.2329,VALID,0,VALID,23.5646,VALID,5,VALID,0,
2012-05-10, 00:56:04,VALID,1001.63,VALID,0,VALID,95.2253,VALID,0,VALID,23.5646,VALID,5,VALID,0,
2012-05-10, 00:57:04,VALID,1001.63,VALID,0,VALID,95.2482,VALID,0,VALID,23.5646,VALID,5,VALID,0,
2012-05-10, 00:58:04,VALID,1001.64,VALID,0,VALID,95.2177,VALID,0,VALID,23.5451,VALID,5,VALID,0,
2012-05-10, 00:59:04,VALID,1001.61,VALID,0,VALID,95.2253,VALID,0,VALID,23.5433,VALID,5,VALID,0,
2012-05-10, 01:00:04,VALID,1001.62,VALID,0,VALID,95.2405,VALID,0,VALID,23.5451,VALID,6,VALID,0.101172,
2012-05-10, 01:01:04,VALID,1001.65,VALID,0,VALID,95.2711,VALID,0,VALID,23.5841,VALID,5,VALID,0.252734,
2012-05-10, 01:02:04,VALID,1001.62,VALID,0,VALID,95.2634,VALID,0,VALID,23.5646,VALID,5,VALID,0.388281,
2012-05-10, 01:03:04,VALID,1001.59,VALID,0,VALID,95.2634,VALID,0,VALID,23.5628,VALID,5,VALID,0.542969,
2012-05-10, 01:04:04,VALID,1001.61,VALID,0,VALID,95.2634,VALID,0,VALID,23.5841,VALID,5,VALID,0.348828,
2012-05-10, 01:05:04,VALID,1001.58,VALID,0,VALID,95.2787,VALID,0,VALID,23.5841,VALID,5,VALID,0.451562,
2012-05-10, 01:06:04,VALID,1001.57,VALID,0,VALID,95.2863,VALID,0,VALID,23.5841,VALID,6,VALID,0.333203,
2012-05-10, 01:07:04,VALID,1001.56,VALID,0,VALID,95.2863,VALID,0,VALID,23.6232,VALID,6,VALID,0.35625,
2012-05-10, 01:08:04,VALID,1001.56,VALID,0,VALID,95.2863,VALID,0,VALID,23.6036,VALID,6,VALID,0.430469,
2012-05-10, 01:09:04,VALID,1001.57,VALID,0,VALID,95.2787,VALID,0,VALID,23.6232,VALID,50,VALID,0.759766,
2012-05-10, 01:10:04,VALID,1001.59,VALID,0,VALID,95.2863,VALID,0,VALID,23.6232,VALID,50,VALID,0.758594,
2012-05-10, 01:11:04,VALID,1001.61,VALID,0,VALID,95.3092,VALID,0,VALID,23.6427,VALID,50,VALID,0.580078,
2012-05-10, 01:12:04,VALID,1001.58,VALID,0,VALID,95.3016,VALID,0,VALID,23.6622,VALID,50,VALID,0.7125,
2012-05-10, 01:13:04,VALID,1001.57,VALID,0,VALID,95.294,VALID,0,VALID,23.6622,VALID,45,VALID,0.629297,
2012-05-10, 01:14:04,VALID,1001.54,VALID,0,VALID,95.294,VALID,0,VALID,23.6817,VALID,28,VALID,0.75625,
2012-05-10, 01:15:04,VALID,1001.56,VALID,0,VALID,95.3016,VALID,0,VALID,23.6817,VALID,19,VALID,0.889844,
2012-05-10, 01:16:04,VALID,1001.54,VALID,0,VALID,95.3168,VALID,0,VALID,23.6799,VALID,31,VALID,1.33906,
2012-05-10, 01:17:04,VALID,1001.49,VALID,0,VALID,95.3168,VALID,0,VALID,23.7012,VALID,32,VALID,0.974219,
2012-05-10, 01:18:04,VALID,1001.45,VALID,0,VALID,95.3016,VALID,0,VALID,23.7207,VALID,32,VALID,0.667578,
2012-05-10, 01:19:04,VALID,1001.4,VALID,0,VALID,95.3092,VALID,0,VALID,23.7402,VALID,53,VALID,0.760938,
2012-05-10, 01:20:04,VALID,1001.36,VALID,0,VALID,95.3397,VALID,0,VALID,23.7189,VALID,77,VALID,0.805078,
2012-05-10, 01:21:04,VALID,1001.29,VALID,0,VALID,95.3092,VALID,0,VALID,23.7402,VALID,98,VALID,1.26914,
2012-05-10, 01:22:04,VALID,1001.29,VALID,0,VALID,95.3168,VALID,0,VALID,23.7402,VALID,110,VALID,0.934766,
2012-05-10, 01:23:04,VALID,1001.3,VALID,0,VALID,95.294,VALID,0,VALID,23.7597,VALID,131,VALID,1.06211,
2012-05-10, 01:24:04,VALID,1001.29,VALID,0,VALID,95.2711,VALID,0,VALID,23.7597,VALID,131,VALID,1.05742,
2012-05-10, 01:25:04,VALID,1001.29,VALID,0,VALID,95.2711,VALID,0,VALID,23.7402,VALID,126,VALID,0.620703,
2012-05-10, 01:26:04,VALID,1001.29,VALID,0,VALID,95.2634,VALID,0,VALID,23.7402,VALID,126,VALID,0.139062,
2012-05-10, 01:27:04,VALID,1001.31,VALID,0,VALID,95.2558,VALID,0,VALID,23.7402,VALID,126,VALID,0.443359,
2012-05-10, 01:28:04,VALID,1001.31,VALID,0,VALID,95.2634,VALID,0,VALID,23.7207,VALID,126,VALID,0.239844,
2012-05-10, 01:29:04,VALID,1001.29,VALID,0,VALID,95.2558,VALID,0,VALID,23.7207,VALID,113,VALID,0.474219,
2012-05-10, 01:30:04,VALID,1001.27,VALID,0,VALID,95.2329,VALID,0,VALID,23.7012,VALID,20,VALID,0.923047,
2012-05-10, 01:31:04,VALID,1001.28,VALID,0,VALID,95.2024,VALID,0,VALID,23.7012,VALID,26,VALID,1.43828,
2012-05-10, 01:32:04,VALID,1001.23,VALID,0,VALID,95.1871,VALID,0,VALID,23.7012,VALID,32,VALID,1.01914,
2012-05-10, 01:33:04,VALID,1001.17,VALID,0,VALID,95.149,VALID,0,VALID,23.7012,VALID,31,VALID,1.25312,
2012-05-10, 01:34:04,VALID,1001.14,VALID,0,VALID,95.1337,VALID,0,VALID,23.7012,VALID,24,VALID,0.853906,
2012-05-10, 01:35:04,VALID,1001.11,VALID,0,VALID,95.1108,VALID,0,VALID,23.7012,VALID,38,VALID,0.723437,
2012-05-10, 01:36:04,VALID,1001.09,VALID,0,VALID,95.1032,VALID,0,VALID,23.7012,VALID,38,VALID,0.800781,
2012-05-10, 01:37:04,VALID,1001.04,VALID,0,VALID,95.0803,VALID,0,VALID,23.7012,VALID,38,VALID,0.764453,
2012-05-10, 01:38:04,VALID,1001.01,VALID,0,VALID,95.1032,VALID,0,VALID,23.7012,VALID,44,VALID,0.814844,
2012-05-10, 01:39:04,VALID,1000.98,VALID,0,VALID,95.1108,VALID,0,VALID,23.7012,VALID,44,VALID,0.723437,
2012-05-10, 01:40:04,VALID,1000.99,VALID,0,VALID,95.1337,VALID,0,VALID,23.7225,VALID,44,VALID,0.589844,
2012-05-10, 01:41:04,VALID,1000.95,VALID,0,VALID,95.1414,VALID,0,VALID,23.7012,VALID,44,VALID,0.403516,
2012-05-10, 01:42:04,VALID,1000.96,VALID,0,VALID,95.1566,VALID,0,VALID,23.7012,VALID,44,VALID,0.209375,
2012-05-10, 01:43:04,VALID,1000.97,VALID,0,VALID,95.1719,VALID,0,VALID,23.7207,VALID,34,VALID,0.569922,
2012-05-10, 01:44:04,VALID,1000.94,VALID,0,VALID,95.1871,VALID,0,VALID,23.7207,VALID,19,VALID,0.290625,
2012-05-10, 01:45:04,VALID,1000.93,VALID,0,VALID,95.1795,VALID,0,VALID,23.7207,VALID,19,VALID,0,
2012-05-10, 01:46:04,VALID,1000.93,VALID,0,VALID,95.2405,VALID,0,VALID,23.7207,VALID,19,VALID,0.352734,
2012-05-10, 01:47:04,VALID,1000.93,VALID,0,VALID,95.2329,VALID,0,VALID,23.7207,VALID,46,VALID,0.895703,
2012-05-10, 01:48:04,VALID,1000.96,VALID,0,VALID,95.2558,VALID,0,VALID,23.7207,VALID,47,VALID,0.691797,
2012-05-10, 01:49:04,VALID,1000.95,VALID,0,VALID,95.2482,VALID,0,VALID,23.7189,VALID,47,VALID,0.277344,
2012-05-10, 01:50:04,VALID,1000.92,VALID,0,VALID,95.2253,VALID,0,VALID,23.7207,VALID,47,VALID,0.248828,
2012-05-10, 01:51:04,VALID,1000.9,VALID,0,VALID,95.2558,VALID,0,VALID,23.7207,VALID,47,VALID,0.0046875,
2012-05-10, 01:52:04,VALID,1000.88,VALID,0,VALID,95.2558,VALID,0,VALID,23.7207,VALID,68,VALID,0.539844,
2012-05-10, 01:53:04,VALID,1000.9,VALID,0,VALID,95.2405,VALID,0,VALID,23.6994,VALID,132,VALID,0.674609,
2012-05-10, 01:54:04,VALID,1000.86,VALID,0,VALID,95.2405,VALID,0,VALID,23.6994,VALID,132,VALID,0.700391,
2012-05-10, 01:55:04,VALID,1000.89,VALID,0,VALID,95.2253,VALID,0,VALID,23.7012,VALID,132,VALID,0.246094,
2012-05-10, 01:56:04,VALID,1000.9,VALID,0,VALID,95.2329,VALID,0,VALID,23.7012,VALID,132,VALID,0,
2012-05-10, 01:57:04,VALID,1000.9,VALID,0,VALID,95.21,VALID,0,VALID,23.6604,VALID,132,VALID,0,
2012-05-10, 01:58:04,VALID,1000.89,VALID,0,VALID,95.2024,VALID,0,VALID,23.6622,VALID,132,VALID,0,
2012-05-10, 01:59:04,VALID,1000.86,VALID,0,VALID,95.21,VALID,0,VALID,23.6622,VALID,132,VALID,0,
2012-05-10, 02:00:04,VALID,1000.87,VALID,0,VALID,95.2405,VALID,0,VALID,23.6622,VALID,132,VALID,0.117578,
2012-05-10, 02:01:04,VALID,1000.84,VALID,0,VALID,95.2711,VALID,0,VALID,23.703,VALID,132,VALID,0.398438,
2012-05-10, 02:02:04,VALID,1000.81,VALID,0,VALID,95.2558,VALID,0,VALID,23.7012,VALID,132,VALID,0,
2012-05-10, 02:03:04,VALID,1000.79,VALID,0,VALID,95.294,VALID,0,VALID,23.7012,VALID,132,VALID,0.247266,
2012-05-10, 02:04:04,VALID,1000.8,VALID,0,VALID,95.294,VALID,0,VALID,23.6799,VALID,132,VALID,0.201953,
2012-05-10, 02:05:04,VALID,1000.81,VALID,0,VALID,95.3016,VALID,0,VALID,23.7012,VALID,132,VALID,0,
2012-05-10, 02:06:04,VALID,1000.84,VALID,0,VALID,95.3168,VALID,0,VALID,23.7207,VALID,132,VALID,0.438281,
2012-05-10, 02:07:04,VALID,1000.86,VALID,0,VALID,95.3321,VALID,0,VALID,23.7207,VALID,132,VALID,0.393359,
2012-05-10, 02:08:04,VALID,1000.89,VALID,0,VALID,95.3168,VALID,0,VALID,23.7402,VALID,132,VALID,0.559766,
2012-05-10, 02:09:04,VALID,1000.95,VALID,0,VALID,95.3321,VALID,0,VALID,23.7793,VALID,260,VALID,0.998438,
2012-05-10, 02:10:04,VALID,1000.96,VALID,0,VALID,95.3474,VALID,0,VALID,23.7793,VALID,267,VALID,1.12773,
2012-05-10, 02:11:04,VALID,1001.04,VALID,0,VALID,95.3626,VALID,0,VALID,23.7988,VALID,256,VALID,1.29922,
2012-05-10, 02:12:04,VALID,1001.13,VALID,0,VALID,95.3474,VALID,0,VALID,23.8183,VALID,264,VALID,1.13867,
2012-05-10, 02:13:04,VALID,1001.1,VALID,0.5,VALID,95.3474,VALID,0,VALID,23.8183,VALID,276,VALID,0.790234,
2012-05-10, 02:14:04,VALID,1001.09,VALID,0,VALID,95.3321,VALID,0,VALID,23.7793,VALID,302,VALID,0.997266,
2012-05-10, 02:15:04,VALID,1001.01,VALID,0,VALID,95.355,VALID,0,VALID,23.8183,VALID,284,VALID,2.09687,
2012-05-10, 02:16:04,VALID,1001.02,VALID,0.5,VALID,95.355,VALID,0,VALID,23.836,VALID,311,VALID,0.922656,
2012-05-10, 02:17:04,VALID,1001.01,VALID,0,VALID,95.3626,VALID,0,VALID,23.8573,VALID,293,VALID,0.807031,
2012-05-10, 02:18:04,VALID,1001.01,VALID,0,VALID,95.355,VALID,0,VALID,23.8982,VALID,307,VALID,1.08398,
2012-05-10, 02:19:04,VALID,1001,VALID,0,VALID,95.3321,VALID,0,VALID,23.8963,VALID,309,VALID,1.3793,
2012-05-10, 02:20:04,VALID,1000.95,VALID,0,VALID,95.3168,VALID,0,VALID,23.8982,VALID,269,VALID,1.94297,
2012-05-10, 02:21:04,VALID,1000.91,VALID,0,VALID,95.2711,VALID,0,VALID,23.8768,VALID,303,VALID,1.97695,
2012-05-10, 02:22:04,VALID,1000.91,VALID,0,VALID,95.1948,VALID,0,VALID,23.8573,VALID,279,VALID,0.679688,
2012-05-10, 02:23:04,VALID,1000.89,VALID,0,VALID,95.0956,VALID,0,VALID,23.8378,VALID,246,VALID,0.855469,
2012-05-10, 02:24:04,VALID,1000.88,VALID,0,VALID,95.0574,VALID,0,VALID,23.8378,VALID,204,VALID,0.6375,
2012-05-10, 02:25:04,VALID,1000.89,VALID,0,VALID,94.9964,VALID,0,VALID,23.7793,VALID,261,VALID,0.950781,
2012-05-10, 02:26:04,VALID,1000.94,VALID,0,VALID,94.9735,VALID,0,VALID,23.7597,VALID,281,VALID,0.501562,
2012-05-10, 02:27:04,VALID,1000.92,VALID,0,VALID,94.8438,VALID,0,VALID,23.7207,VALID,288,VALID,0.801172,
2012-05-10, 02:28:04,VALID,1000.92,VALID,0,VALID,94.5005,VALID,0,VALID,23.6622,VALID,316,VALID,1.1918,
2012-05-10, 02:29:04,VALID,1000.92,VALID,0,VALID,94.3097,VALID,0,VALID,23.6232,VALID,298,VALID,0.43125,
2012-05-10, 02:30:04,VALID,1000.93,VALID,0,VALID,94.3326,VALID,0,VALID,23.6036,VALID,299,VALID,0.191016,
2012-05-10, 02:31:04,VALID,1000.93,VALID,0,VALID,94.3479,VALID,0,VALID,23.5646,VALID,299,VALID,0.279687,
2012-05-10, 02:32:04,VALID,1000.92,VALID,0,VALID,94.3631,VALID,0,VALID,23.5451,VALID,299,VALID,0.0710938,
2012-05-10, 02:33:04,VALID,1000.9,VALID,0,VALID,94.4013,VALID,0,VALID,23.5061,VALID,299,VALID,0.00117188,
2012-05-10, 02:34:04,VALID,1000.89,VALID,0,VALID,94.4776,VALID,0,VALID,23.4866,VALID,299,VALID,0.189844,
2012-05-10, 02:35:04,VALID,1000.97,VALID,0,VALID,94.5157,VALID,0,VALID,23.4671,VALID,299,VALID,0.441797,
2012-05-10, 02:36:04,VALID,1000.99,VALID,0,VALID,94.5615,VALID,0,VALID,23.4458,VALID,306,VALID,0.719922,
2012-05-10, 02:37:04,VALID,1001.09,VALID,0,VALID,94.592,VALID,0,VALID,23.4671,VALID,306,VALID,0.804688,
2012-05-10, 02:38:04,VALID,1001.19,VALID,0,VALID,94.6378,VALID,0,VALID,23.4671,VALID,298,VALID,1.17539,
2012-05-10, 02:39:04,VALID,1001.23,VALID,0,VALID,94.7217,VALID,0,VALID,23.4866,VALID,307,VALID,1.28516,
2012-05-10, 02:40:04,VALID,1001.25,VALID,0,VALID,94.7523,VALID,0,VALID,23.4866,VALID,311,VALID,0.953516,
2012-05-10, 02:41:04,VALID,1001.27,VALID,0.5,VALID,94.8057,VALID,0,VALID,23.4671,VALID,295,VALID,0.757031,
2012-05-10, 02:42:04,VALID,1001.26,VALID,0,VALID,94.7751,VALID,0,VALID,23.4671,VALID,269,VALID,1.14336,
2012-05-10, 02:43:04,VALID,1001.3,VALID,0.5,VALID,94.7828,VALID,0,VALID,23.4493,VALID,255,VALID,1.09609,
2012-05-10, 02:44:04,VALID,1001.28,VALID,0.5,VALID,94.8057,VALID,0,VALID,23.389,VALID,269,VALID,1.08164,
2012-05-10, 02:45:04,VALID,1001.09,VALID,0,VALID,94.8514,VALID,0,VALID,23.389,VALID,247,VALID,1.2543,
2012-05-10, 02:46:04,VALID,1001.18,VALID,0.5,VALID,94.8743,VALID,0,VALID,23.3695,VALID,300,VALID,1.72969,
2012-05-10, 02:47:04,VALID,1001.08,VALID,0,VALID,94.8972,VALID,0,VALID,23.35,VALID,298,VALID,1.10703,
2012-05-10, 02:48:04,VALID,1000.99,VALID,0,VALID,94.9277,VALID,0,VALID,23.35,VALID,272,VALID,2.20703,
2012-05-10, 02:49:04,VALID,1000.96,VALID,0,VALID,94.9277,VALID,0,VALID,23.35,VALID,332,VALID,1.21641,
2012-05-10, 02:50:04,VALID,1000.89,VALID,0,VALID,94.9354,VALID,0,VALID,23.3287,VALID,291,VALID,1.01758,
2012-05-10, 02:51:04,VALID,1000.89,VALID,0,VALID,94.9201,VALID,0,VALID,23.35,VALID,291,VALID,2.20313,
2012-05-10, 02:52:04,VALID,1000.85,VALID,0,VALID,94.9125,VALID,0,VALID,23.3482,VALID,329,VALID,1.31797,
2012-05-10, 02:53:04,VALID,1000.83,VALID,0,VALID,94.882,VALID,0,VALID,23.3908,VALID,269,VALID,1.75469,
2012-05-10, 02:54:04,VALID,1000.89,VALID,0,VALID,94.7599,VALID,0,VALID,23.389,VALID,294,VALID,2.11016,
2012-05-10, 02:55:04,VALID,1000.91,VALID,0,VALID,94.7141,VALID,0,VALID,23.4085,VALID,331,VALID,1.11133,
2012-05-10, 02:56:04,VALID,1000.9,VALID,0.5,VALID,94.6836,VALID,0,VALID,23.4085,VALID,334,VALID,1.1125,
2012-05-10, 02:57:04,VALID,1000.83,VALID,0,VALID,94.5997,VALID,0,VALID,23.389,VALID,337,VALID,1.31094,
2012-05-10, 02:58:04,VALID,1000.81,VALID,0,VALID,94.5234,VALID,0,VALID,23.4298,VALID,319,VALID,1.4832,
2012-05-10, 02:59:04,VALID,1000.86,VALID,0,VALID,94.3784,VALID,0,VALID,23.428,VALID,306,VALID,1.69492,
2012-05-10, 03:00:04,VALID,1000.81,VALID,0,VALID,94.3403,VALID,0,VALID,23.428,VALID,309,VALID,0.159766,
2012-05-10, 03:01:04,VALID,1000.8,VALID,0,VALID,94.3555,VALID,0,VALID,23.4085,VALID,317,VALID,0,
2012-05-10, 03:02:04,VALID,1000.81,VALID,0,VALID,94.4089,VALID,0,VALID,23.389,VALID,313,VALID,0,
2012-05-10, 03:03:04,VALID,1000.78,VALID,0,VALID,94.4471,VALID,0,VALID,23.389,VALID,310,VALID,0,
2012-05-10, 03:04:04,VALID,1000.71,VALID,0,VALID,94.5234,VALID,0,VALID,23.3695,VALID,310,VALID,0,
2012-05-10, 03:05:04,VALID,1000.69,VALID,0,VALID,94.5691,VALID,0,VALID,23.35,VALID,310,VALID,0,
2012-05-10, 03:06:04,VALID,1000.69,VALID,0,VALID,94.6302,VALID,0,VALID,23.311,VALID,310,VALID,0,
2012-05-10, 03:07:04,VALID,1000.66,VALID,0,VALID,94.7065,VALID,0,VALID,23.2897,VALID,310,VALID,0,
2012-05-10, 03:08:04,VALID,1000.7,VALID,0,VALID,94.7217,VALID,0,VALID,23.2719,VALID,310,VALID,0,
2012-05-10, 03:09:04,VALID,1000.71,VALID,0,VALID,94.7446,VALID,0,VALID,23.2524,VALID,359,VALID,1.04492,
2012-05-10, 03:10:04,VALID,1000.7,VALID,0,VALID,94.7217,VALID,0,VALID,23.2702,VALID,262,VALID,0.743359,
2012-05-10, 03:11:04,VALID,1000.67,VALID,0,VALID,94.6912,VALID,0,VALID,23.2719,VALID,252,VALID,0.267188,
2012-05-10, 03:12:04,VALID,1000.66,VALID,0,VALID,94.6836,VALID,0,VALID,23.2719,VALID,252,VALID,0.0171875,
2012-05-10, 03:13:04,VALID,1000.68,VALID,0,VALID,94.7141,VALID,0,VALID,23.2719,VALID,252,VALID,0.0558594,
2012-05-10, 03:14:04,VALID,1000.7,VALID,0,VALID,94.737,VALID,0,VALID,23.2524,VALID,252,VALID,0.000390625,
2012-05-10, 03:15:04,VALID,1000.75,VALID,0,VALID,94.7751,VALID,0,VALID,23.2134,VALID,255,VALID,0.227734,
2012-05-10, 03:16:04,VALID,1000.74,VALID,0,VALID,94.7599,VALID,0,VALID,23.2134,VALID,263,VALID,0.598437,
2012-05-10, 03:17:04,VALID,1000.73,VALID,0,VALID,94.7294,VALID,0,VALID,23.2134,VALID,284,VALID,0.309375,
2012-05-10, 03:18:04,VALID,1000.72,VALID,0,VALID,94.737,VALID,0,VALID,23.2134,VALID,284,VALID,0.0148437,
2012-05-10, 03:19:04,VALID,1000.74,VALID,0,VALID,94.7294,VALID,0,VALID,23.1939,VALID,284,VALID,0.366797,
2012-05-10, 03:20:04,VALID,1000.72,VALID,0,VALID,94.6988,VALID,0,VALID,23.1726,VALID,284,VALID,0.0191406,
2012-05-10, 03:21:04,VALID,1000.72,VALID,0,VALID,94.6988,VALID,0,VALID,23.1744,VALID,282,VALID,0.213672,
2012-05-10, 03:22:04,VALID,1000.75,VALID,0,VALID,94.7065,VALID,0,VALID,23.1549,VALID,282,VALID,0,
2012-05-10, 03:23:04,VALID,1000.73,VALID,0,VALID,94.7217,VALID,0,VALID,23.1141,VALID,282,VALID,0.169922,
2012-05-10, 03:24:04,VALID,1000.69,VALID,0,VALID,94.7141,VALID,0,VALID,23.1354,VALID,282,VALID,0.163281,
2012-05-10, 03:25:04,VALID,1000.71,VALID,0,VALID,94.7446,VALID,0,VALID,23.1141,VALID,282,VALID,0.319141,
2012-05-10, 03:26:04,VALID,1000.67,VALID,0,VALID,94.8057,VALID,0,VALID,23.1159,VALID,282,VALID,0.316797,
2012-05-10, 03:27:04,VALID,1000.71,VALID,0,VALID,94.8285,VALID,0,VALID,23.0946,VALID,282,VALID,0.260938,
2012-05-10, 03:28:04,VALID,1000.72,VALID,0,VALID,94.8591,VALID,0,VALID,23.1159,VALID,231,VALID,0.485156,
2012-05-10, 03:29:04,VALID,1000.71,VALID,0,VALID,94.882,VALID,0,VALID,23.1141,VALID,205,VALID,0.298047,
2012-05-10, 03:30:04,VALID,1000.69,VALID,0,VALID,94.8667,VALID,0,VALID,23.1141,VALID,154,VALID,0.629297,
2012-05-10, 03:31:04,VALID,1000.67,VALID,0,VALID,94.8362,VALID,0,VALID,23.1141,VALID,154,VALID,0.300781,
2012-05-10, 03:32:04,VALID,1000.64,VALID,0,VALID,94.798,VALID,0,VALID,23.1354,VALID,154,VALID,0.602344,
2012-05-10, 03:33:04,VALID,1000.65,VALID,0,VALID,94.7675,VALID,0,VALID,23.1336,VALID,145,VALID,0.955078,
2012-05-10, 03:34:04,VALID,1000.63,VALID,0,VALID,94.8362,VALID,0,VALID,23.1744,VALID,137,VALID,1.54648,
2012-05-10, 03:35:04,VALID,1000.64,VALID,0,VALID,94.9125,VALID,0,VALID,23.2329,VALID,132,VALID,1.04414,
2012-05-10, 03:36:04,VALID,1000.6,VALID,0,VALID,94.9811,VALID,0,VALID,23.2524,VALID,128,VALID,0.766406,
2012-05-10, 03:37:04,VALID,1000.58,VALID,0,VALID,95.0117,VALID,0,VALID,23.2702,VALID,103,VALID,1.0918,
2012-05-10, 03:38:04,VALID,1000.55,VALID,0,VALID,95.0727,VALID,0,VALID,23.2897,VALID,97,VALID,1.53437,
2012-05-10, 03:39:04,VALID,1000.56,VALID,0,VALID,95.0727,VALID,0,VALID,23.3305,VALID,100,VALID,1.44023,
2012-05-10, 03:40:04,VALID,1000.52,VALID,0,VALID,95.1185,VALID,0,VALID,23.35,VALID,110,VALID,1.66641,
2012-05-10, 03:41:04,VALID,1000.5,VALID,0,VALID,95.1337,VALID,0,VALID,23.3695,VALID,108,VALID,1.58438,
2012-05-10, 03:42:04,VALID,1000.51,VALID,0,VALID,95.1261,VALID,0,VALID,23.389,VALID,101,VALID,1.47187,
2012-05-10, 03:43:04,VALID,1000.46,VALID,0,VALID,95.1795,VALID,0,VALID,23.389,VALID,92,VALID,1.06875,
2012-05-10, 03:44:04,VALID,1000.45,VALID,0,VALID,95.1795,VALID,0,VALID,23.3677,VALID,88,VALID,0.570313,
2012-05-10, 03:45:04,VALID,1000.42,VALID,0,VALID,95.1719,VALID,0,VALID,23.3677,VALID,96,VALID,0.39375,
2012-05-10, 03:46:04,VALID,1000.43,VALID,0,VALID,95.1643,VALID,0,VALID,23.3695,VALID,96,VALID,0.364453,
2012-05-10, 03:47:04,VALID,1000.38,VALID,0,VALID,95.1719,VALID,0,VALID,23.3695,VALID,96,VALID,0.313281,